Zurück zum Katalog

COSMOS 2167

AktivMilitärPO
NORAD 21781·PAYLOAD·🇷🇺 Russia

Gestartet Nov 12, 1991 von Plesetsk Cosmodrome

Loading…

Nächste Überflüge (nächste 24 Stunden)

TLE

AktuellSource: Space-Track

Epoche: Sep 14, 2026, 05:06 UTC

1 21781U 91077C   26257.21307419  .00000027  00000-0  87822-4 0  9992
2 21781  82.6092 183.9153 0005661 236.5138 279.8321 12.64293924607191

Verfolge COSMOS 2167 in Echtzeit mit AllMySat

Download on the App Store